Time,TemperatureF,DewpointF,PressureIn,WindDirection,WindDirectionDegrees,WindSpeedMPH,WindSpeedGustMPH,Humidity,HourlyPrecipIn,Conditions,Clouds,dailyrainin,SoftwareType,DateUTC
2013-04-29 00:00:00,48.3,37.5,30.25,ESE,113,0.0,0.0,66,0.00,,,0.00,Wunderground v.1.15,2013-04-29 04:00:00,
2013-04-29 00:05:00,48.0,36.8,30.25,ESE,113,0.0,0.0,65,0.00,,,0.00,Wunderground v.1.15,2013-04-29 04:05:00,
2013-04-29 00:15:00,47.6,37.9,30.25,SSE,157,0.0,0.0,69,0.00,,,0.00,Wunderground v.1.15,2013-04-29 04:15:00,
2013-04-29 00:20:00,47.3,38.0,30.25,SSE,157,0.0,0.0,70,0.00,,,0.00,Wunderground v.1.15,2013-04-29 04:20:00,
2013-04-29 00:25:00,47.1,36.7,30.25,SSE,157,0.0,0.0,67,0.00,,,0.00,Wunderground v.1.15,2013-04-29 04:25:00,
2013-04-29 00:35:00,47.0,36.6,30.25,SSE,157,0.0,0.0,67,0.00,,,0.00,Wunderground v.1.15,2013-04-29 04:35:00,
2013-04-29 00:40:00,46.8,37.2,30.25,SSE,157,0.0,0.0,69,0.00,,,0.00,Wunderground v.1.15,2013-04-29 04:40:00,
2013-04-29 00:45:00,46.7,36.3,30.25,SSE,157,0.0,0.0,67,0.00,,,0.00,Wunderground v.1.15,2013-04-29 04:45:00,
2013-04-29 00:55:00,46.4,37.5,30.25,SSE,157,0.0,0.0,71,0.00,,,0.00,Wunderground v.1.15,2013-04-29 04:55:00,
2013-04-29 01:00:00,46.2,36.2,30.25,SSE,157,0.0,0.0,68,0.00,,,0.00,Wunderground v.1.15,2013-04-29 05:00:00,
2013-04-29 01:10:00,46.0,37.1,30.25,SSE,157,0.0,0.0,71,0.00,,,0.00,Wunderground v.1.15,2013-04-29 05:10:00,
2013-04-29 01:15:00,46.0,37.1,30.25,SSE,157,0.0,0.0,71,0.00,,,0.00,Wunderground v.1.15,2013-04-29 05:15:00,
2013-04-29 01:20:00,46.0,37.1,30.25,SSE,157,0.0,0.0,71,0.00,,,0.00,Wunderground v.1.15,2013-04-29 05:20:00,
2013-04-29 01:25:00,45.8,36.2,30.25,SSE,157,0.0,0.0,69,0.00,,,0.00,Wunderground v.1.15,2013-04-29 05:25:00,
2013-04-29 01:35:00,45.7,36.1,30.25,SSE,157,0.0,0.0,69,0.00,,,0.00,Wunderground v.1.15,2013-04-29 05:35:00,
2013-04-29 01:40:00,45.5,37.0,30.25,SSE,157,0.0,0.0,72,0.00,,,0.00,Wunderground v.1.15,2013-04-29 05:40:00,
2013-04-29 01:45:00,45.4,36.2,30.25,SSE,157,0.0,0.0,70,0.00,,,0.00,Wunderground v.1.15,2013-04-29 05:45:00,
2013-04-29 01:50:00,45.2,36.4,30.25,SSE,157,0.0,0.0,71,0.00,,,0.00,Wunderground v.1.15,2013-04-29 05:50:00,
2013-04-29 02:00:00,45.1,37.0,30.25,SSE,157,0.0,0.0,73,0.00,,,0.00,Wunderground v.1.15,2013-04-29 06:00:00,
2013-04-29 02:05:00,44.9,36.4,30.24,SSE,157,0.0,0.0,72,0.00,,,0.00,Wunderground v.1.15,2013-04-29 06:05:00,
2013-04-29 02:15:00,44.6,36.5,30.24,SSE,157,0.0,0.0,73,0.00,,,0.00,Wunderground v.1.15,2013-04-29 06:15:00,
2013-04-29 02:20:00,44.5,36.7,30.24,SSE,157,0.0,0.0,74,0.00,,,0.00,Wunderground v.1.15,2013-04-29 06:20:00,
2013-04-29 02:25:00,44.5,36.7,30.24,SSE,157,0.0,0.0,74,0.00,,,0.00,Wunderground v.1.15,2013-04-29 06:25:00,
2013-04-29 02:35:00,44.2,35.7,30.24,SSE,157,0.0,0.0,72,0.00,,,0.00,Wunderground v.1.15,2013-04-29 06:35:00,
2013-04-29 02:40:00,44.1,35.3,30.24,SSE,157,0.0,0.0,71,0.00,,,0.00,Wunderground v.1.15,2013-04-29 06:40:00,
2013-04-29 02:45:00,43.9,35.5,30.24,SSE,157,0.0,0.0,72,0.00,,,0.00,Wunderground v.1.15,2013-04-29 06:45:00,
2013-04-29 02:55:00,43.8,35.0,30.23,SSE,157,0.0,0.0,71,0.00,,,0.00,Wunderground v.1.15,2013-04-29 06:55:00,
2013-04-29 03:00:00,43.6,35.2,30.24,SSE,157,0.0,0.0,72,0.00,,,0.00,Wunderground v.1.15,2013-04-29 07:00:00,
2013-04-29 03:05:00,43.5,35.4,30.23,SSE,157,0.0,0.0,73,0.00,,,0.00,Wunderground v.1.15,2013-04-29 07:05:00,
2013-04-29 03:15:00,43.3,35.2,30.23,SSE,157,0.0,0.0,73,0.00,,,0.00,Wunderground v.1.15,2013-04-29 07:15:00,
2013-04-29 03:20:00,43.2,35.1,30.23,SSE,157,0.0,0.0,73,0.00,,,0.00,Wunderground v.1.15,2013-04-29 07:20:00,
2013-04-29 03:25:00,43.2,35.5,30.24,SSE,157,0.0,0.0,74,0.00,,,0.00,Wunderground v.1.15,2013-04-29 07:25:00,
2013-04-29 03:35:00,42.9,35.5,30.24,SSE,157,0.0,0.0,75,0.00,,,0.00,Wunderground v.1.15,2013-04-29 07:35:00,
2013-04-29 03:40:00,42.8,35.4,30.24,SSE,157,0.0,0.0,75,0.00,,,0.00,Wunderground v.1.15,2013-04-29 07:40:00,
2013-04-29 03:45:00,42.8,36.1,30.24,SSE,157,0.0,0.0,77,0.00,,,0.00,Wunderground v.1.15,2013-04-29 07:45:00,
2013-04-29 03:55:00,42.5,35.5,30.24,SSE,157,0.0,0.0,76,0.00,,,0.00,Wunderground v.1.15,2013-04-29 07:55:00,
2013-04-29 04:00:00,42.3,35.3,30.24,SSE,157,0.0,0.0,76,0.00,,,0.00,Wunderground v.1.15,2013-04-29 08:00:00,
2013-04-29 04:10:00,42.2,35.2,30.25,SSE,157,0.0,1.0,76,0.00,,,0.00,Wunderground v.1.15,2013-04-29 08:10:00,
2013-04-29 04:15:00,42.1,35.1,30.25,SSE,157,0.0,1.0,76,0.00,,,0.00,Wunderground v.1.15,2013-04-29 08:15:00,
2013-04-29 04:20:00,41.9,35.2,30.25,SSE,157,0.0,0.0,77,0.00,,,0.00,Wunderground v.1.15,2013-04-29 08:20:00,
2013-04-29 04:25:00,41.8,34.8,30.25,SSE,157,0.0,0.0,76,0.00,,,0.00,Wunderground v.1.15,2013-04-29 08:25:00,
2013-04-29 04:35:00,41.6,34.6,30.25,SSE,157,0.0,0.0,76,0.00,,,0.00,Wunderground v.1.15,2013-04-29 08:35:00,
2013-04-29 04:40:00,41.5,35.2,30.25,SSE,157,0.0,0.0,78,0.00,,,0.00,Wunderground v.1.15,2013-04-29 08:40:00,
2013-04-29 04:45:00,41.3,34.6,30.25,SSE,157,0.0,0.0,77,0.00,,,0.00,Wunderground v.1.15,2013-04-29 08:45:00,
2013-04-29 04:55:00,41.2,35.2,30.25,SSE,157,0.0,0.0,79,0.00,,,0.00,Wunderground v.1.15,2013-04-29 08:55:00,
2013-04-29 05:00:00,41.1,34.8,30.25,SSE,157,0.0,0.0,78,0.00,,,0.00,Wunderground v.1.15,2013-04-29 09:00:00,
2013-04-29 05:10:00,40.9,34.6,30.25,SSE,157,0.0,0.0,78,0.00,,,0.00,Wunderground v.1.15,2013-04-29 09:10:00,
2013-04-29 05:15:00,40.8,35.1,30.25,SSE,157,0.0,0.0,80,0.00,,,0.00,Wunderground v.1.15,2013-04-29 09:15:00,
2013-04-29 05:20:00,40.8,35.1,30.25,SSE,157,0.0,0.0,80,0.00,,,0.00,Wunderground v.1.15,2013-04-29 09:20:00,
2013-04-29 05:30:00,40.5,34.8,30.26,SSE,157,0.0,0.0,80,0.00,,,0.00,Wunderground v.1.15,2013-04-29 09:30:00,
2013-04-29 05:35:00,40.5,34.5,30.26,SSE,157,0.0,0.0,79,0.00,,,0.00,Wunderground v.1.15,2013-04-29 09:35:00,
2013-04-29 05:40:00,40.3,34.3,30.26,SSE,157,0.0,0.0,79,0.00,,,0.00,Wunderground v.1.15,2013-04-29 09:40:00,
2013-04-29 05:45:00,40.3,34.6,30.26,SSE,157,0.0,0.0,80,0.00,,,0.00,Wunderground v.1.15,2013-04-29 09:45:00,
2013-04-29 05:55:00,40.2,34.5,30.26,SSE,157,0.0,0.0,80,0.00,,,0.00,Wunderground v.1.15,2013-04-29 09:55:00,
2013-04-29 06:00:00,40.2,34.8,30.26,SSE,157,0.0,0.0,81,0.00,,,0.00,Wunderground v.1.15,2013-04-29 10:00:00,
2013-04-29 06:10:00,40.1,35.0,30.27,SSE,157,0.0,0.0,82,0.00,,,0.00,Wunderground v.1.15,2013-04-29 10:10:00,
2013-04-29 06:15:00,40.1,34.7,30.27,SSE,157,0.0,0.0,81,0.00,,,0.00,Wunderground v.1.15,2013-04-29 10:15:00,
2013-04-29 06:20:00,40.2,35.1,30.27,SSE,157,0.0,0.0,82,0.00,,,0.00,Wunderground v.1.15,2013-04-29 10:20:00,
2013-04-29 06:30:00,40.2,34.8,30.27,SSE,157,0.0,0.0,81,0.00,,,0.00,Wunderground v.1.15,2013-04-29 10:30:00,
2013-04-29 06:35:00,40.3,35.2,30.27,SSE,157,0.0,0.0,82,0.00,,,0.00,Wunderground v.1.15,2013-04-29 10:35:00,
2013-04-29 06:40:00,40.5,35.4,30.26,SSE,157,0.0,0.0,82,0.00,,,0.00,Wunderground v.1.15,2013-04-29 10:40:00,
2013-04-29 06:45:00,40.8,35.7,30.27,SSE,157,0.0,0.0,82,0.00,,,0.00,Wunderground v.1.15,2013-04-29 10:45:00,
2013-04-29 06:55:00,41.2,35.8,30.27,SSE,157,0.0,0.0,81,0.00,,,0.00,Wunderground v.1.15,2013-04-29 10:55:00,
2013-04-29 07:00:00,41.3,35.6,30.27,SSE,157,0.0,0.0,80,0.00,,,0.00,Wunderground v.1.15,2013-04-29 11:00:00,
2013-04-29 07:10:00,41.9,36.8,30.27,SSE,157,0.0,0.0,82,0.00,,,0.00,Wunderground v.1.15,2013-04-29 11:10:00,
2013-04-29 07:15:00,42.2,36.8,30.27,SSE,157,0.0,0.0,81,0.00,,,0.00,Wunderground v.1.15,2013-04-29 11:15:00,
2013-04-29 07:20:00,42.6,36.9,30.27,SSE,157,0.0,0.0,80,0.00,,,0.00,Wunderground v.1.15,2013-04-29 11:20:00,
2013-04-29 07:25:00,43.1,36.0,30.28,SSE,157,0.0,0.0,76,0.00,,,0.00,Wunderground v.1.15,2013-04-29 11:25:00,
2013-04-29 07:35:00,44.2,35.7,30.27,SSE,157,0.0,0.0,72,0.00,,,0.00,Wunderground v.1.15,2013-04-29 11:35:00,
2013-04-29 07:40:00,44.6,35.4,30.27,SSE,157,0.0,0.0,70,0.00,,,0.00,Wunderground v.1.15,2013-04-29 11:40:00,
2013-04-29 07:50:00,45.5,37.0,30.27,SSE,157,0.0,0.0,72,0.00,,,0.00,Wunderground v.1.15,2013-04-29 11:50:00,
2013-04-29 07:55:00,46.0,37.5,30.27,SSE,157,0.0,0.0,72,0.00,,,0.00,Wunderground v.1.15,2013-04-29 11:55:00,
2013-04-29 08:00:00,46.4,36.8,30.27,SSE,157,0.0,0.0,69,0.00,,,0.00,Wunderground v.1.15,2013-04-29 12:00:00,
2013-04-29 08:10:00,47.4,36.6,30.28,SSE,157,0.0,0.0,66,0.00,,,0.00,Wunderground v.1.15,2013-04-29 12:10:00,
2013-04-29 08:15:00,47.9,37.1,30.27,SSE,157,0.0,0.0,66,0.00,,,0.00,Wunderground v.1.15,2013-04-29 12:15:00,
2013-04-29 08:20:00,48.3,37.5,30.27,SSE,157,0.0,0.0,66,0.00,,,0.00,Wunderground v.1.15,2013-04-29 12:20:00,
2013-04-29 08:30:00,49.4,38.5,30.27,SSE,157,0.0,0.0,66,0.00,,,0.00,Wunderground v.1.15,2013-04-29 12:30:00,
2013-04-29 08:35:00,49.9,39.4,30.28,SSE,157,0.0,0.0,67,0.00,,,0.00,Wunderground v.1.15,2013-04-29 12:35:00,
2013-04-29 08:40:00,50.4,39.9,30.27,SSE,157,0.0,0.0,67,0.00,,,0.00,Wunderground v.1.15,2013-04-29 12:40:00,
2013-04-29 08:50:00,51.4,40.0,30.27,SSE,157,0.0,0.0,65,0.00,,,0.00,Wunderground v.1.15,2013-04-29 12:50:00,
2013-04-29 08:55:00,51.7,40.3,30.27,SSE,157,0.0,1.0,65,0.00,,,0.00,Wunderground v.1.15,2013-04-29 12:55:00,
2013-04-29 09:00:00,52.2,40.4,30.27,SSE,157,0.0,0.0,64,0.00,,,0.00,Wunderground v.1.15,2013-04-29 13:00:00,
2013-04-29 09:10:00,53.1,41.2,30.27,WSW,250,1.0,1.0,64,0.00,,,0.00,Wunderground v.1.15,2013-04-29 13:10:00,
2013-04-29 09:15:00,53.5,42.0,30.27,SW,219,1.0,1.0,65,0.00,,,0.00,Wunderground v.1.15,2013-04-29 13:15:00,
2013-04-29 09:20:00,54.1,43.0,30.27,SSW,203,1.0,2.0,66,0.00,,,0.00,Wunderground v.1.15,2013-04-29 13:20:00,
2013-04-29 09:30:00,55.0,43.0,30.27,SW,219,1.0,3.0,64,0.00,,,0.00,Wunderground v.1.15,2013-04-29 13:30:00,
2013-04-29 09:35:00,55.4,43.0,30.26,SSW,195,1.0,3.0,63,0.00,,,0.00,Wunderground v.1.15,2013-04-29 13:35:00,
2013-04-29 09:40:00,55.9,43.5,30.26,East,92,1.0,1.0,63,0.00,,,0.00,Wunderground v.1.15,2013-04-29 13:40:00,
2013-04-29 09:50:00,57.2,43.9,30.26,SW,221,2.0,2.0,61,0.00,,,0.00,Wunderground v.1.15,2013-04-29 13:50:00,
2013-04-29 09:55:00,58.1,43.8,30.26,SW,229,1.0,2.0,59,0.00,,,0.00,Wunderground v.1.15,2013-04-29 13:55:00,
2013-04-29 10:00:00,58.9,45.0,30.26,South,179,1.0,2.0,60,0.00,,,0.00,Wunderground v.1.15,2013-04-29 14:00:00,
2013-04-29 10:10:00,59.3,45.8,30.25,SW,215,1.0,1.0,61,0.00,,,0.00,Wunderground v.1.15,2013-04-29 14:10:00,
2013-04-29 10:15:00,60.1,45.3,30.25,South,190,1.0,1.0,58,0.00,,,0.00,Wunderground v.1.15,2013-04-29 14:15:00,
2013-04-29 10:25:00,60.5,45.2,30.26,North,10,2.0,2.0,57,0.00,,,0.00,Wunderground v.1.15,2013-04-29 14:25:00,
2013-04-29 10:30:00,60.9,45.6,30.25,WSW,237,2.0,2.0,57,0.00,,,0.00,Wunderground v.1.15,2013-04-29 14:30:00,
2013-04-29 10:35:00,61.5,46.1,30.25,SSE,150,2.0,2.0,57,0.00,,,0.00,Wunderground v.1.15,2013-04-29 14:35:00,
2013-04-29 10:45:00,62.3,45.4,30.25,ESE,116,2.0,2.0,54,0.00,,,0.00,Wunderground v.1.15,2013-04-29 14:45:00,
2013-04-29 10:50:00,62.9,45.5,30.25,East,94,2.0,9.0,53,0.00,,,0.00,Wunderground v.1.15,2013-04-29 14:50:00,
2013-04-29 10:55:00,63.9,45.9,30.24,SSE,151,3.0,9.0,52,0.00,,,0.00,Wunderground v.1.15,2013-04-29 14:55:00,
2013-04-29 11:05:00,65.8,46.1,30.24,South,184,2.0,3.0,49,0.00,,,0.00,Wunderground v.1.15,2013-04-29 15:05:00,
2013-04-29 11:10:00,65.6,44.3,30.24,East,94,2.0,5.0,46,0.00,,,0.00,Wunderground v.1.15,2013-04-29 15:10:00,
2013-04-29 11:15:00,66.0,45.2,30.25,WSW,242,4.0,5.0,47,0.00,,,0.00,Wunderground v.1.15,2013-04-29 15:15:00,
2013-04-29 11:25:00,66.8,43.6,30.24,SE,138,4.0,4.0,43,0.00,,,0.00,Wunderground v.1.15,2013-04-29 15:25:00,
2013-04-29 11:30:00,67.3,41.5,30.24,SW,232,4.0,10.0,39,0.00,,,0.00,Wunderground v.1.15,2013-04-29 15:30:00,
2013-04-29 11:35:00,67.3,41.5,30.24,South,190,4.0,10.0,39,0.00,,,0.00,Wunderground v.1.15,2013-04-29 15:35:00,
2013-04-29 11:45:00,67.3,44.0,30.23,SSW,195,3.0,3.0,43,0.00,,,0.00,Wunderground v.1.15,2013-04-29 15:45:00,
2013-04-29 11:50:00,67.4,44.7,30.23,SSW,209,2.0,4.0,44,0.00,,,0.00,Wunderground v.1.15,2013-04-29 15:50:00,
2013-04-29 11:55:00,67.6,43.1,30.23,SW,225,2.0,4.0,41,0.00,,,0.00,Wunderground v.1.15,2013-04-29 15:55:00,
2013-04-29 12:00:00,67.6,42.4,30.23,SSE,151,3.0,3.0,40,0.00,,,0.00,Wunderground v.1.15,2013-04-29 16:00:00,
2013-04-29 12:10:00,67.3,41.5,30.22,WSW,242,3.0,3.0,39,0.00,,,0.00,Wunderground v.1.15,2013-04-29 16:10:00,
2013-04-29 12:19:00,67.9,38.5,30.22,East,98,3.0,8.0,34,0.00,,,0.00,Wunderground v.1.15,2013-04-29 16:19:00,
2013-04-29 12:25:00,68.4,40.4,30.22,West,280,3.0,8.0,36,0.00,,,0.00,Wunderground v.1.15,2013-04-29 16:25:00,
2013-04-29 12:30:00,69.3,38.2,30.21,SSW,208,3.0,3.0,32,0.00,,,0.00,Wunderground v.1.15,2013-04-29 16:30:00,
2013-04-29 12:35:00,69.4,41.3,30.21,SE,128,2.0,3.0,36,0.00,,,0.00,Wunderground v.1.15,2013-04-29 16:35:00,
2013-04-29 12:45:00,69.1,38.0,30.21,South,190,2.0,7.0,32,0.00,,,0.00,Wunderground v.1.15,2013-04-29 16:45:00,
2013-04-29 12:50:00,68.6,39.1,30.21,ESE,116,4.0,9.0,34,0.00,,,0.00,Wunderground v.1.15,2013-04-29 16:50:00,
2013-04-29 12:55:00,68.3,39.6,30.21,SSE,165,5.0,9.0,35,0.00,,,0.00,Wunderground v.1.15,2013-04-29 16:55:00,
2013-04-29 13:00:00,67.8,39.1,30.21,SW,235,3.0,3.0,35,0.00,,,0.00,Wunderground v.1.15,2013-04-29 17:00:00,
2013-04-29 13:10:00,67.9,40.7,30.20,SSE,163,3.0,3.0,37,0.00,,,0.00,Wunderground v.1.15,2013-04-29 17:10:00,
2013-04-29 13:20:00,67.9,39.2,30.20,ESE,107,3.0,3.0,35,0.00,,,0.00,Wunderground v.1.15,2013-04-29 17:20:00,
2013-04-29 13:25:00,67.4,37.3,30.20,ENE,70,3.0,3.0,33,0.00,,,0.00,Wunderground v.1.15,2013-04-29 17:25:00,
2013-04-29 13:30:00,67.1,38.5,30.20,ESE,104,2.0,2.0,35,0.00,,,0.00,Wunderground v.1.15,2013-04-29 17:30:00,
2013-04-29 13:35:00,67.1,39.9,30.19,ESE,105,3.0,3.0,37,0.00,,,0.00,Wunderground v.1.15,2013-04-29 17:35:00,
2013-04-29 13:45:00,68.3,39.6,30.19,SE,134,2.0,5.0,35,0.00,,,0.00,Wunderground v.1.15,2013-04-29 17:45:00,
2013-04-29 13:50:00,68.6,37.5,30.19,ESE,102,3.0,3.0,32,0.00,,,0.00,Wunderground v.1.15,2013-04-29 17:50:00,
2013-04-29 13:55:00,68.8,36.9,30.19,SSE,149,4.0,4.0,31,0.00,,,0.00,Wunderground v.1.15,2013-04-29 17:55:00,
2013-04-29 14:05:00,68.4,35.7,30.19,SE,140,5.0,7.0,30,0.00,,,0.00,Wunderground v.1.15,2013-04-29 18:05:00,
2013-04-29 14:10:00,68.3,38.1,30.19,SSE,164,5.0,5.0,33,0.00,,,0.00,Wunderground v.1.15,2013-04-29 18:10:00,
2013-04-29 14:15:00,67.8,37.6,30.19,SSE,162,4.0,5.0,33,0.00,,,0.00,Wunderground v.1.15,2013-04-29 18:15:00,
2013-04-29 14:25:00,68.1,39.4,30.18,South,178,2.0,5.0,35,0.00,,,0.00,Wunderground v.1.15,2013-04-29 18:25:00,
2013-04-29 14:30:00,68.3,38.1,30.18,SE,130,3.0,3.0,33,0.00,,,0.00,Wunderground v.1.15,2013-04-29 18:30:00,
2013-04-29 14:40:00,68.3,38.1,30.18,SE,129,3.0,3.0,33,0.00,,,0.00,Wunderground v.1.15,2013-04-29 18:40:00,
2013-04-29 14:45:00,68.1,37.9,30.18,East,94,3.0,6.0,33,0.00,,,0.00,Wunderground v.1.15,2013-04-29 18:45:00,
2013-04-29 14:50:00,68.1,39.4,30.18,SSW,204,3.0,3.0,35,0.00,,,0.00,Wunderground v.1.15,2013-04-29 18:50:00,
2013-04-29 15:00:00,67.6,37.5,30.18,SE,135,3.0,3.0,33,0.00,,,0.00,Wunderground v.1.15,2013-04-29 19:00:00,
2013-04-29 15:05:00,67.4,37.3,30.17,South,169,3.0,3.0,33,0.00,,,0.00,Wunderground v.1.15,2013-04-29 19:05:00,
2013-04-29 15:15:00,66.9,39.8,30.17,SSE,164,1.0,2.0,37,0.00,,,0.00,Wunderground v.1.15,2013-04-29 19:15:00,
2013-04-29 15:20:00,66.6,40.2,30.17,WNW,293,1.0,1.0,38,0.00,,,0.00,Wunderground v.1.15,2013-04-29 19:20:00,
2013-04-29 15:25:00,66.3,40.6,30.17,South,187,1.0,1.0,39,0.00,,,0.00,Wunderground v.1.15,2013-04-29 19:25:00,
2013-04-29 15:30:00,65.8,42.7,30.17,SSE,160,2.0,2.0,43,0.00,,,0.00,Wunderground v.1.15,2013-04-29 19:30:00,
2013-04-29 15:40:00,65.2,40.9,30.18,WSW,252,1.0,4.0,41,0.00,,,0.00,Wunderground v.1.15,2013-04-29 19:40:00,
2013-04-29 15:45:00,64.8,41.2,30.18,SSE,166,2.0,4.0,42,0.00,,,0.00,Wunderground v.1.15,2013-04-29 19:45:00,
2013-04-29 15:50:00,64.3,41.3,30.18,SSW,202,3.0,4.0,43,0.00,,,0.00,Wunderground v.1.15,2013-04-29 19:50:00,
2013-04-29 16:00:00,63.7,41.4,30.18,West,270,3.0,3.0,44,0.00,,,0.00,Wunderground v.1.15,2013-04-29 20:00:00,
2013-04-29 16:05:00,63.4,40.5,30.18,West,265,2.0,3.0,43,0.00,,,0.00,Wunderground v.1.15,2013-04-29 20:05:00,
2013-04-29 16:15:00,62.7,41.6,30.18,SE,139,2.0,4.0,46,0.00,,,0.00,Wunderground v.1.15,2013-04-29 20:15:00,
2013-04-29 16:20:00,62.4,40.2,30.18,SW,216,3.0,3.0,44,0.00,,,0.00,Wunderground v.1.15,2013-04-29 20:20:00,
2013-04-29 16:25:00,62.1,39.3,30.18,SSE,154,3.0,3.0,43,0.00,,,0.00,Wunderground v.1.15,2013-04-29 20:25:00,
2013-04-29 16:35:00,61.8,40.2,30.18,South,188,3.0,4.0,45,0.00,,,0.00,Wunderground v.1.15,2013-04-29 20:35:00,
2013-04-29 16:40:00,61.6,40.0,30.18,SSW,213,3.0,7.0,45,0.00,,,0.00,Wunderground v.1.15,2013-04-29 20:40:00,
2013-04-29 16:45:00,61.5,39.4,30.18,SE,144,3.0,12.0,44,0.00,,,0.00,Wunderground v.1.15,2013-04-29 20:45:00,
2013-04-29 16:50:00,61.2,40.2,30.18,SW,231,2.0,2.0,46,0.00,,,0.00,Wunderground v.1.15,2013-04-29 20:50:00,
2013-04-29 17:00:00,61.2,38.5,30.18,SSW,204,2.0,2.0,43,0.00,,,0.00,Wunderground v.1.15,2013-04-29 21:00:00,
2013-04-29 17:10:00,61.0,37.7,30.19,South,190,2.0,2.0,42,0.00,,,0.00,Wunderground v.1.15,2013-04-29 21:10:00,
2013-04-29 17:15:00,60.9,38.2,30.19,South,186,2.0,5.0,43,0.00,,,0.00,Wunderground v.1.15,2013-04-29 21:15:00,
2013-04-29 17:20:00,60.9,37.6,30.19,SW,231,2.0,4.0,42,0.00,,,0.00,Wunderground v.1.15,2013-04-29 21:20:00,
2013-04-29 17:25:00,60.7,38.1,30.19,South,191,3.0,4.0,43,0.00,,,0.00,Wunderground v.1.15,2013-04-29 21:25:00,
2013-04-29 17:35:00,60.4,37.2,30.19,South,188,2.0,2.0,42,0.00,,,0.00,Wunderground v.1.15,2013-04-29 21:35:00,
2013-04-29 17:40:00,60.2,37.6,30.19,ESE,118,2.0,2.0,43,0.00,,,0.00,Wunderground v.1.15,2013-04-29 21:40:00,
2013-04-29 17:45:00,60.1,36.9,30.19,SSW,198,2.0,2.0,42,0.00,,,0.00,Wunderground v.1.15,2013-04-29 21:45:00,
2013-04-29 17:55:00,59.8,38.4,30.20,South,188,1.0,4.0,45,0.00,,,0.00,Wunderground v.1.15,2013-04-29 21:55:00,
2013-04-29 18:00:00,59.6,37.6,30.20,SSE,153,1.0,1.0,44,0.00,,,0.00,Wunderground v.1.15,2013-04-29 22:00:00,
2013-04-29 18:05:00,59.3,37.9,30.20,WSW,247,1.0,1.0,45,0.00,,,0.00,Wunderground v.1.15,2013-04-29 22:05:00,
2013-04-29 18:15:00,59.0,36.5,30.20,ESE,118,1.0,2.0,43,0.00,,,0.00,Wunderground v.1.15,2013-04-29 22:15:00,
2013-04-29 18:20:00,59.0,37.7,30.20,SSW,202,1.0,2.0,45,0.00,,,0.00,Wunderground v.1.15,2013-04-29 22:20:00,
2013-04-29 18:30:00,59.0,37.7,30.20,ESE,102,1.0,1.0,45,0.00,,,0.00,Wunderground v.1.15,2013-04-29 22:30:00,
2013-04-29 18:35:00,58.9,38.7,30.20,SSE,163,1.0,3.0,47,0.00,,,0.00,Wunderground v.1.15,2013-04-29 22:35:00,
2013-04-29 18:40:00,58.6,38.4,30.20,SSE,155,2.0,4.0,47,0.00,,,0.00,Wunderground v.1.15,2013-04-29 22:40:00,
2013-04-29 18:45:00,58.4,39.8,30.21,SE,142,3.0,4.0,50,0.00,,,0.00,Wunderground v.1.15,2013-04-29 22:45:00,
2013-04-29 18:55:00,58.0,38.9,30.20,SSE,166,1.0,2.0,49,0.00,,,0.00,Wunderground v.1.15,2013-04-29 22:55:00,
2013-04-29 19:00:00,58.0,38.4,30.20,ESE,115,1.0,2.0,48,0.00,,,0.00,Wunderground v.1.15,2013-04-29 23:00:00,
2013-04-29 19:09:00,57.6,38.0,30.21,South,183,1.0,1.0,48,0.00,,,0.00,Wunderground v.1.15,2013-04-29 23:09:00,
2013-04-29 19:15:00,57.5,39.0,30.21,SSW,208,1.0,1.0,50,0.00,,,0.00,Wunderground v.1.15,2013-04-29 23:15:00,
2013-04-29 19:20:00,57.5,40.5,30.21,SSW,208,0.0,0.0,53,0.00,,,0.00,Wunderground v.1.15,2013-04-29 23:20:00,
2013-04-29 19:25:00,57.2,41.2,30.22,SSW,208,0.0,0.0,55,0.00,,,0.00,Wunderground v.1.15,2013-04-29 23:25:00,
2013-04-29 19:35:00,56.7,42.5,30.22,SSW,208,0.0,0.0,59,0.00,,,0.00,Wunderground v.1.15,2013-04-29 23:35:00,
2013-04-29 19:40:00,56.6,42.4,30.22,SSW,208,0.0,0.0,59,0.00,,,0.00,Wunderground v.1.15,2013-04-29 23:40:00,
2013-04-29 19:45:00,56.3,42.1,30.22,SSE,163,0.0,0.0,59,0.00,,,0.00,Wunderground v.1.15,2013-04-29 23:45:00,
2013-04-29 19:50:00,56.0,42.3,30.22,SSE,163,0.0,0.0,60,0.00,,,0.00,Wunderground v.1.15,2013-04-29 23:50:00,
2013-04-29 20:00:00,55.4,42.6,30.22,SSE,163,0.0,0.0,62,0.00,,,0.00,Wunderground v.1.15,2013-04-30 00:00:00,
2013-04-29 20:05:00,55.1,42.3,30.22,SSE,163,0.0,0.0,62,0.00,,,0.00,Wunderground v.1.15,2013-04-30 00:05:00,
2013-04-29 20:15:00,54.7,42.8,30.22,SSE,163,0.0,0.0,64,0.00,,,0.00,Wunderground v.1.15,2013-04-30 00:15:00,
2013-04-29 20:20:00,54.5,43.8,30.22,SSE,163,0.0,0.0,67,0.00,,,0.00,Wunderground v.1.15,2013-04-30 00:20:00,
2013-04-29 20:25:00,54.4,44.1,30.22,SSE,163,0.0,0.0,68,0.00,,,0.00,Wunderground v.1.15,2013-04-30 00:25:00,
2013-04-29 20:35:00,53.9,42.8,30.23,SSE,163,0.0,0.0,66,0.00,,,0.00,Wunderground v.1.15,2013-04-30 00:35:00,
2013-04-29 20:40:00,53.8,43.1,30.23,SSE,163,0.0,0.0,67,0.00,,,0.00,Wunderground v.1.15,2013-04-30 00:40:00,
2013-04-29 20:45:00,53.8,43.1,30.23,SSE,163,0.0,0.0,67,0.00,,,0.00,Wunderground v.1.15,2013-04-30 00:45:00,
2013-04-29 20:55:00,53.5,42.8,30.24,SSE,163,0.0,0.0,67,0.00,,,0.00,Wunderground v.1.15,2013-04-30 00:55:00,
2013-04-29 21:00:00,53.5,42.8,30.24,SSE,163,0.0,0.0,67,0.00,,,0.00,Wunderground v.1.15,2013-04-30 01:00:00,
2013-04-29 21:05:00,53.3,43.4,30.25,SSE,163,0.0,0.0,69,0.00,,,0.00,Wunderground v.1.15,2013-04-30 01:05:00,
2013-04-29 21:15:00,53.2,43.7,30.25,SSE,163,0.0,0.0,70,0.00,,,0.00,Wunderground v.1.15,2013-04-30 01:15:00,
2013-04-29 21:20:00,53.1,42.8,30.25,SW,234,1.0,1.0,68,0.00,,,0.00,Wunderground v.1.15,2013-04-30 01:20:00,
2013-04-29 21:25:00,52.9,43.0,30.25,SW,233,1.0,1.0,69,0.00,,,0.00,Wunderground v.1.15,2013-04-30 01:25:00,
2013-04-29 21:35:00,52.8,42.1,30.25,SW,234,0.0,0.0,67,0.00,,,0.00,Wunderground v.1.15,2013-04-30 01:35:00,
2013-04-29 21:40:00,52.8,44.0,30.25,SW,234,0.0,0.0,72,0.00,,,0.00,Wunderground v.1.15,2013-04-30 01:40:00,
2013-04-29 21:45:00,52.8,43.3,30.25,SW,233,0.0,0.0,70,0.00,,,0.00,Wunderground v.1.15,2013-04-30 01:45:00,
2013-04-29 21:55:00,52.5,41.1,30.25,SW,233,0.0,0.0,65,0.00,,,0.00,Wunderground v.1.15,2013-04-30 01:55:00,
2013-04-29 22:00:00,52.3,40.9,30.25,SW,234,0.0,0.0,65,0.00,,,0.00,Wunderground v.1.15,2013-04-30 02:00:00,
2013-04-29 22:10:00,52.2,40.8,30.25,SW,224,0.0,0.0,65,0.00,,,0.00,Wunderground v.1.15,2013-04-30 02:10:00,
2013-04-29 22:15:00,52.2,40.8,30.25,SW,224,0.0,0.0,65,0.00,,,0.00,Wunderground v.1.15,2013-04-30 02:15:00,
2013-04-29 22:20:00,52.2,40.8,30.25,SW,224,0.0,0.0,65,0.00,,,0.00,Wunderground v.1.15,2013-04-30 02:20:00,
2013-04-29 22:25:00,52.0,41.0,30.25,SW,224,0.0,0.0,66,0.00,,,0.00,Wunderground v.1.15,2013-04-30 02:25:00,
2013-04-29 22:35:00,51.9,41.3,30.26,SW,224,0.0,0.0,67,0.00,,,0.00,Wunderground v.1.15,2013-04-30 02:35:00,
2013-04-29 22:40:00,51.9,41.7,30.25,SW,224,0.0,0.0,68,0.00,,,0.00,Wunderground v.1.15,2013-04-30 02:40:00,
2013-04-29 22:45:00,51.7,40.3,30.25,SW,224,0.0,0.0,65,0.00,,,0.00,Wunderground v.1.15,2013-04-30 02:45:00,
2013-04-29 22:55:00,51.6,41.0,30.26,SW,224,0.0,0.0,67,0.00,,,0.00,Wunderground v.1.15,2013-04-30 02:55:00,
2013-04-29 23:00:00,51.6,39.8,30.26,SW,224,0.0,0.0,64,0.00,,,0.00,Wunderground v.1.15,2013-04-30 03:00:00,
2013-04-29 23:05:00,51.4,40.0,30.26,SW,224,0.0,0.0,65,0.00,,,0.00,Wunderground v.1.15,2013-04-30 03:05:00,
2013-04-29 23:15:00,51.3,39.9,30.26,SW,224,0.0,0.0,65,0.00,,,0.00,Wunderground v.1.15,2013-04-30 03:15:00,
2013-04-29 23:20:00,51.3,40.7,30.26,SW,224,0.0,0.0,67,0.00,,,0.00,Wunderground v.1.15,2013-04-30 03:20:00,
2013-04-29 23:25:00,51.1,40.9,30.26,SW,224,0.0,0.0,68,0.00,,,0.00,Wunderground v.1.15,2013-04-30 03:25:00,
2013-04-29 23:30:00,51.0,40.8,30.26,SW,224,0.0,0.0,68,0.00,,,0.00,Wunderground v.1.15,2013-04-30 03:30:00,
2013-04-29 23:40:00,50.8,40.2,30.26,SW,224,0.0,0.0,67,0.00,,,0.00,Wunderground v.1.15,2013-04-30 03:40:00,
2013-04-29 23:45:00,50.7,40.5,30.26,SW,224,0.0,0.0,68,0.00,,,0.00,Wunderground v.1.15,2013-04-30 03:45:00,
2013-04-29 23:55:00,50.5,40.3,30.26,SW,224,0.0,0.0,68,0.00,,,0.00,Wunderground v.1.15,2013-04-30 03:55:00,